Fairfield, OH

3:40 AM EST on December 09, 2016 (GMT -0500)
Butler County Regional

Weather History for KHAO - January, 2014

Change the Weather History Date:

Tuesday, January 28, 2014

  Actual Average (KLUK) Record (KLUK)
Temperature  
Mean Temperature 0 °F -  
Max Temperature 10 °F 38 °F 66 °F (2002)
Min Temperature -11 °F 21 °F -20 °F (1963)
Degree Days  
Heating Degree Days 66    
Moisture  
Dew Point -11 °F    
Average Humidity 65    
Maximum Humidity 83    
Minimum Humidity 42    
Precipitation  
Precipitation 0.00 in - - ()
Sea Level Pressure  
Sea Level Pressure 30.48 in    
Wind  
Wind Speed 3 mph (WNW)    
Max Wind Speed 9 mph    
Max Gust Speed -    
Visibility 10 miles    
Events Snow    
Averages and records for this station are not official NWS values.
T = Trace of Precipitation, MM = Missing Value Source: NWS Daily Summary

Daily Weather History Graph

Daily Weather History Graph

Search for Another Location

Airport or City:

Trip Planner

Search our weather history database for the weather conditions in past years. The results will help you decide how hot, cold, wet, or windy it might be!

Date:

Astronomy

Jan. 28, 2014 Rise Set
Actual Time 7:48 AM EST 5:53 PM EST
Civil Twilight 7:20 AM EST 6:22 PM EST
Nautical Twilight 6:47 AM EST 6:54 PM EST
Astronomical Twilight 6:16 AM EST 7:26 PM EST
Moon 5:29 AM EST (1/28) 3:43 PM EST (1/28)
Length of Visible Light 11h 02m
Length of Day
10h 05m
Waning Crescent, 7% of the Moon is Illuminated
Jan 28
Waning Crescent
Jan 30
New
Feb 6
First Quarter
Feb 14
Full
Feb 22
Last Quarter

Hourly Weather History & Observations

Time (EST) Temp. Windchill Dew Point Humidity Pressure Visibility Wind Dir Wind Speed Gust Speed Precip Events Conditions
12:53 AM -2.0 °F -15.4 °F -11.9 °F 63% 30.50 in 10.0 mi NNW 6.9 mph - 0.00 in Snow Light Snow
1:53 AM -2.9 °F -18.8 °F -11.9 °F 65% 30.51 in 10.0 mi WNW 9.2 mph - 0.00 in   Clear
2:53 AM -4.0 °F -14.6 °F -14.1 °F 62% 30.51 in 10.0 mi NW 4.6 mph - N/A   Clear
3:53 AM -8.0 °F - -14.1 °F 75% 30.52 in 10.0 mi Calm Calm - N/A   Clear
4:53 AM -9.0 °F - -14.1 °F 79% 30.52 in 10.0 mi Calm Calm - N/A   Clear
5:53 AM -9.9 °F - -15.0 °F 78% 30.54 in 10.0 mi Calm Calm - N/A   Clear
6:53 AM -9.9 °F - -15.0 °F 78% 30.53 in 10.0 mi Calm Calm - N/A   Clear
7:53 AM -11.0 °F - -16.1 °F 78% 30.55 in 10.0 mi Calm Calm - N/A   Clear
8:53 AM -5.1 °F -13.6 °F -11.0 °F 76% 30.55 in 10.0 mi WNW 3.5 mph - N/A   Clear
9:53 AM -2.9 °F -11.2 °F -11.9 °F 65% 30.55 in 10.0 mi NW 3.5 mph - 0.00 in Snow Light Snow
10:53 AM -0.0 °F - -13.0 °F 54% 30.55 in 9.0 mi Calm Calm - 0.00 in   Clear
11:53 AM 1.9 °F - -13.0 °F 50% 30.52 in 10.0 mi Calm Calm - N/A   Clear
12:53 PM 5.0 °F - -11.0 °F 48% 30.49 in 10.0 mi Calm Calm - 0.00 in   Clear
1:53 PM 7.0 °F -1.7 °F -9.0 °F 48% 30.45 in 9.0 mi West 4.6 mph - 0.00 in Snow Light Snow
2:53 PM 8.1 °F 1.4 °F -9.0 °F 46% 30.44 in 9.0 mi West 3.5 mph - 0.00 in Snow Light Snow
3:53 PM 10.0 °F 3.6 °F -8.0 °F 44% 30.43 in 10.0 mi SW 3.5 mph - 0.00 in   Clear
4:53 PM 9.0 °F - -9.9 °F 42% 30.43 in 10.0 mi Calm Calm - 0.00 in Snow Light Snow
5:53 PM 7.0 °F - -9.0 °F 48% 30.42 in 9.0 mi Calm Calm - 0.00 in Snow Light Snow
6:53 PM 1.0 °F - -9.0 °F 63% 30.43 in 9.0 mi Calm Calm - 0.00 in Snow Light Snow
7:53 PM -2.9 °F - -9.0 °F 75% 30.42 in 10.0 mi Calm Calm - 0.00 in   Clear
8:53 PM -4.0 °F - -9.0 °F 79% 30.40 in 10.0 mi Calm Calm - N/A   Clear
9:53 PM -5.1 °F - -9.9 °F 80% 30.41 in 10.0 mi Calm Calm - N/A   Clear
10:53 PM -6.0 °F - -9.9 °F 83% 30.41 in 10.0 mi Calm Calm - N/A   Clear
11:53 PM -6.0 °F - -11.0 °F 79% 30.41 in 10.0 mi Calm Calm - N/A   Clear